Regional Weather Roundup
Issued by NWS Newport/Morehead, NC

Current Version | Previous Version | Text Only | Print | Product List | Glossary On
Versions: 1 2 3 4 5 6 7 8 9 10 11 12 13 14 15 16 17 18 19 20 21 22 23 24 25 26 27 28 29 30 31 32 33 34 35 36 37 38 39 40 41 42 43 44 45 46 47 48 49 50
000 ASUS42 KMHX 240013 RWRMHX WEATHER ROUNDUP FOR EASTERN NORTH CAROLINA NATIONAL WEATHER SERVICE NEWPORT/MOREHEAD CITY NC 700 PM EST THU FEB 23 2017 NOTE: "FAIR" INDICATES FEW OR NO CLOUDS BELOW 12,000 FEET WITH NO SIGNIFICANT WEATHER AND/OR OBSTRUCTIONS TO VISIBILITY NCZ015>017-031-032-045>047-102-103-240100- NORTH COAST CITY SKY/WX TMP DP RH WIND PRES REMARKS EDENTON CLOUDY 63 55 77 CALM 29.93R ELIZABETH CITY MOCLDY 59 54 83 SE6 29.94R KITTY HAWK NOT AVBL MANTEO MOCLDY 57 54 88 E5 29.95R $$ NCZ045>047-081-094-103-104-240100- CENTRAL COAST CITY SKY/WX TMP DP RH WIND PRES REMARKS FRISCO CLOUDY 68 58 70 SE10 29.93R $$ NCZ095-097-098-100-101-240100- SOUTHERN COAST CITY SKY/WX TMP DP RH WIND PRES REMARKS BEAUFORT PTCLDY 64 58 80 NE5 29.91R CEDAR ISLAND NOT AVBL JACKSONVILLE PTCLDY 66 59 78 E6 29.90R PINEY ISLAND LGT RAIN N/A N/A N/A CALM 29.92R WILMINGTON CLOUDY 62 57 83 NE5 29.89R $$ NCZ011>013-027>030-043-044-078>080-089-090>093-098-240100- COASTAL PLAIN CITY SKY/WX TMP DP RH WIND PRES REMARKS AHOSKIE N/A 64 53 68 CALM 29.92R CLINTON CLEAR 65 56 71 CALM 29.91R ELIZABETHTOWN PTCLDY 65 55 70 CALM 29.90R GOLDSBORO MOCLDY 69 55 60 SE6 29.89R GREENVILLE CLOUDY 68 57 68 SE5 29.94R HAVELOCK CLEAR 63 57 81 NE3 29.92R KENANSVILLE CLOUDY 64 54 68 SE3 29.91R KINSTON NOT AVBL NEW BERN PTCLDY 64 59 83 CALM 29.93R RICHLANDS PTCLDY 64 57 78 CALM 29.92R ROCKY MOUNT CLEAR 60 53 77 CALM 29.91R WASHINGTON PTCLDY 63 56 78 E5 29.93R WHITEVILLE PTCLDY 68 57 67 E3 29.89R $$ AMZ130-135-150-152-154-156-158-170-250-252-270-ANZ085-086-088-633-658-670-240100- MARINE OBSERVATIONS STATION/POSITION TIME TEMP WIND PRES WAVE SWELL AIR SEA DIR/SP/G HT/PER HT/PER (UTC) (F) (DEG/KT/KT) (MB) (FT/S) (FT/S) CHESAPEAKE LIGHT NOT AVBL 64 E VA BEACH 2350 58 54 100/ 6/ 8 1013.7 3/10 3/10 DUCK 2336 56 49 120/ 5/ 5 1013.2 2 E DUCK 0000 51 N/A 3/11 2/11 OREGON INLET 2348 90/ 4/ 5 N/A 13E OREGON INLT NOT AVBL HATTERAS CG 2336 67 62 120/ 7/ 13 1012.9 DIAMOND BUOY 2350 69 74 150/ 16/ 19 1013.1 5/ 6 3/11 CAPE LOOKOUT 0000 66 130/ 8/ 9 1012.4 BEAUFORT LAB 2336 66 58 60/ 3/ 4 1011.9 30 SE NEW RVR IN 2308 69 120/ 10/ 14 1011.8 30 SE NEW RVR IN 2343 69 N/A 5/ 7 2/11 27 SE WRIGHTSVLE 2308 68 67 60/ 4/ 8 1011.4 5 SE WRIGHTSVLE 2308 60 58 50/ 6/ 8 1011.7 225 S CAPE HAT 2350 69 70 90/ 23/ 27 1009.8 9/ 8 5/12 41 SE CHARLESTON 2350 71 70 80/ 12/ 16 1009.4 9/ 8 8/ 8 $$

USA.gov is the U.S. government's official web portal to all federal, state and local government web resources and services.